Hourly Data Report for October 10, 2006

ALERT CLIMATE
NUNAVUT

82°30'00.000" N
62°20'00.000" W
65.40 m
2400305
71355
ZLT

Download Data

Hourly Data (October 2006)
Hourly Data Report for October 10, 2006
TIME
LST
Temp Definition
°C
Dew Point Definition
°C
Rel Hum Definition
%
Precip. Amount Definition
mm

Wind Dir Definition
10's deg

Wind Spd Definition
km/h
Visibility Definition
km
Stn Press Definition
kPa
Hmdx Definition


Wind Chill Definition


Weather Definition


00:00 -17.0 -18.5 88     0   102.08     LegendNANA
01:00 -16.8 -18.3 88     0   102.11     LegendNANA
02:00 -16.4 -17.9 88   24 4   102.12   -19 LegendNANA
03:00 -15.5 -16.9 89   28 4   102.13   -18 LegendNANA
04:00 -15.7 -17.1 89   29 2   102.17   -17 LegendNANA
05:00 -14.9 -16.2 90   11 2   102.19   -16 LegendNANA
06:00 -14.8 -16.2 89   9 2   102.25   -16 LegendNANA
07:00 -14.7 -16.0 90     0   102.30     LegendNANA
08:00 -14.7 -16.0 90   5 2   102.30   -16 LegendNANA
09:00 -14.9 -16.2 90   3 4   102.32   -18 LegendNANA
10:00 -15.1 -16.5 89     0   102.32     LegendNANA
11:00 -15.1 -16.4 90   18 2   102.32   -17 LegendNANA
12:00 -14.6 -15.9 90     0   102.29     LegendNANA
13:00 -14.6 -15.9 90     0   102.29     LegendNANA
14:00 -14.5 -15.8 90   34 2   102.33   -16 LegendNANA
15:00 -14.4 -15.7 90   36 2   102.33   -16 LegendNANA
16:00 -14.2 -15.5 90   2 2   102.35   -16 LegendNANA
17:00 -14.2 -15.5 90   27 2   102.33   -16 LegendNANA
18:00 -13.4 -14.6 91   32 11   102.33   -20 LegendNANA
19:00 -13.3 -14.5 91   34 17   102.34   -21 LegendNANA
20:00 -13.1 -14.3 91   34 20   102.34   -22 LegendNANA
21:00 -13.3 -14.5 91   34 24   102.31   -23 LegendNANA
22:00 -13.5 -14.7 91   34 26   102.29   -23 LegendNANA
23:00 -13.6 -14.8 91   34 28   102.28   -24 LegendNANA

Notes on Data Quality.

Legend

  • E = Estimated
  • M = Missing
  • NA = Not Available*
  • [empty] = Indicates an unobserved value
Date modified: